Temp
64 64 63 63 63 63 63 63 62 62 62 62 62 62 62 62 62 62 62 62 63 64 64 63 64 64 69 76 75 84 77 80 86 85 81 78 76 73 69 71 71 69 70 71 73 72 72
63 63 63 63 63 63 63 63 62 62 62 62 62 62 62 62 61 61 62 62 63 63 63 63 63 63 74 70 82 84 82 84 84 84 80 81 76 76 71 69 69 70 69 70 71 70 71
63 63 63 63 62 63 63 62 62 61 61 61 62 62 62 61 61 61 62 62 63 63 63 63 63 68 78 72 83 85 83 82 83 83 78 79 79 75 73 68 70 69 68 70 71 70 68
63 63 62 62 63 62 62 62 61 61 61 61 61 61 61 60 60 61 62 62 62 63 63 63 63 72 72 81 86 83 85 83 84 84 81 79 80 74 72 71 70 68 69 64 68 71 68
62 62 62 62 62 62 61 61 61 61 60 61 61 61 60 60 60 61 62 62 64 64 64 64 72 75 70 80 79 81 83 79 80 80 80 79 77 70 70 69 67 67 63 62 63 68 68
62 62 62 62 61 61 61 61 60 60 60 60 60 60 60 60 60 61 61 62 65 66 69 71 74 74 76 71 75 77 83 80 77 76 75 73 74 71 71 69 61 60 61 61 60 64 67
62 61 61 61 61 61 61 60 60 60 60 60 60 60 59 60 60 61 68 75 73 73 74 66 66 68 71 77 76 78 79 78 76 74 67 68 68 65 64 64 65 63 61 59 61 63 62
61 61 61 61 61 60 60 60 60 60 60 60 60 59 59 59 59 60 71 65 60 65 65 68 68 70 71 73 71 75 80 72 69 65 66 66 63 65 64 63 62 61 60 59 60 62 63
61 61 61 60 60 60 60 59 59 59 60 60 59 59 59 59 60 67 65 60 65 64 69 67 69 70 70 74 68 71 76 70 66 63 63 62 63 63 62 61 60 60 59 58 59 60 63
60 61 60 60 60 59 59 59 59 59 59 59 59 58 59 59 64 66 63 64 66 66 66 61 66 69 72 71 66 73 74 70 66 62 62 62 64 61 61 60 62 56 60 59 58 58 55
60 60 60 59 59 59 59 59 59 59 59 58 58 58 58 58 66 65 63 66 67 66 54 61 64 75 71 68 67 68 71 70 62 62 62 59 60 60 59 60 62 58 60 59 58 57 56
59 60 59 59 58 58 58 58 59 59 59 58 58 57 58 65 69 63 66 65 66 62 51 57 62 60 64 64 64 66 67 70 65 61 62 61 63 62 62 61 61 60 58 56 56 56 49
59 59 59 58 58 58 58 58 59 59 59 58 57 57 62 65 64 65 66 66 62 58 56 53 54 58 57 57 60 60 57 55 55 54 55 59 59 62 62 59 61 60 57 52 48 47 50
59 59 58 58 58 58 58 58 59 59 58 57 56 57 60 64 64 63 67 65 55 50 51 55 54 56 55 55 55 56 55 54 56 53 56 53 50 58 61 59 58 57 57 52 43 48 50
58 58 58 58 58 57 58 58 58 58 58 56 56 67 67 65 63 65 66 62 52 50 50 50 54 53 52 53 55 54 51 50 51 52 50 51 52 59 59 60 59 55 54 56 50 49 48
58 58 58 57 57 57 57 58 58 58 57 54 66 67 64 63 63 66 66 47 48 51 51 51 50 50 50 50 53 54 50 49 48 51 54 51 49 55 57 60 59 57 58 51 53 42 42
58 58 58 57 57 57 57 58 58 57 55 55 65 65 65 63 66 67 56 48 49 52 52 51 48 48 48 47 49 48 45 46 48 50 54 52 50 53 55 53 51 56 55 52 52 50 46
58 58 57 57 57 56 57 57 57 56 54 58 61 62 64 64 62 55 51 49 48 48 52 50 50 49 47 46 47 46 45 46 49 49 47 50 49 48 49 52 53 53 50 50 47 45 48
57 57 57 57 56 56 56 56 56 55 52 61 60 59 65 62 57 49 48 46 47 47 45 47 45 47 48 45 44 45 45 47 48 48 45 49 47 45 45 48 52 47 47 49 47 47 45
57 57 57 57 56 56 56 56 56 55 53 59 59 58 58 56 50 52 48 45 43 47 45 46 45 47 46 44 46 42 43 45 46 47 47 48 45 44 43 41 44 43 44 45 46 42 46
57 57 57 57 56 56 56 56 55 54 53 60 52 45 44 50 47 48 49 46 42 41 46 47 44 43 43 42 42 40 42 44 45 45 46 46 40 40 42 43 42 42 42 43 41 45 40
56 57 57 56 56 56 56 55 55 53 52 53 53 49 47 44 43 47 43 42 41 40 43 41 42 42 44 41 40 39 39 42 39 44 43 44 40 39 39 40 41 38 41 41 41 41 41
56 56 56 56 56 56 56 55 54 52 54 53 48 50 55 40 43 47 42 42 40 44 43 45 44 43 41 41 44 45 45 44 43 39 38 39 40 38 37 39 40 37 37 39 39 40 39
56 56 56 56 56 56 56 56 55 52 51 54 49 53 53 41 44 41 41 42 41 41 41 43 45 44 43 47 45 46 44 42 42 41 42 38 38 39 36 38 29 37 44 43 40 40 43
56 56 56 56 55 55 55 55 55 53 50 49 47 51 49 38 42 41 42 40 42 43 41 42 43 45 46 45 42 37 38 37 38 39 38 41 40 36 33 33 38 36 39 39 38 36 43
56 56 56 55 55 55 55 55 55 53 51 50 46 47 50 42 40 44 42 42 41 41 41 41 45 48 46 45 41 32 33 33 33 35 39 39 41 38 34 28 28 37 42 46 45 33 44
56 56 55 55 55 55 55 55 55 54 51 52 46 46 50 42 43 44 43 42 42 41 42 40 41 43 44 41 36 34 33 35 32 31 32 35 35 31 33 30 36 41 44 46 29 34 46
56 55 55 55 55 55 55 55 54 54 52 52 45 47 49 44 43 45 45 42 41 43 41 40 40 41 41 37 36 35 35 35 33 35 34 34 32 32 33 28 25 45 43 36 44 48 48
55 55 55 54 54 54 54 54 54 53 52 51 48 49 49 47 43 45 46 47 46 47 44 41 40 39 42 38 37 37 33 33 32 31 37 31 38 37 36 37 45 48 45 49 48 46 47
MSLP
1024.23 1024.15 1024.05 1023.79 1023.58 1023.37 1023.07 1022.76 1022.46 1022.15 1021.79 1021.34 1020.87 1020.40 1019.92 1019.41 1018.93 1018.43 1017.93 1017.49 1017.10 1016.77 1016.58 1016.52 1016.43 1016.31 1015.99 1014.57 1014.12 1013.95 1014.05 1013.81 1013.48 1013.29 1013.07 1012.92 1012.71 1012.93 1012.84 1013.14 1013.37 1013.15 1013.38 1013.44 1013.44 1013.51 1013.52
1024.49 1024.28 1024.12 1023.83 1023.52 1023.20 1022.86 1022.48 1022.17 1021.76 1021.37 1020.92 1020.38 1019.83 1019.31 1018.81 1018.38 1018.01 1017.60 1017.17 1016.77 1016.39 1016.18 1016.19 1016.19 1016.17 1015.13 1014.05 1014.20 1014.10 1013.99 1013.73 1013.50 1013.31 1013.37 1013.17 1013.27 1013.48 1013.39 1013.53 1013.53 1013.77 1013.69 1013.58 1013.63 1013.60 1013.81
1024.57 1024.42 1024.18 1023.83 1023.49 1023.16 1022.73 1022.36 1021.92 1021.52 1021.02 1020.52 1020.00 1019.45 1018.91 1018.47 1018.02 1017.61 1017.15 1016.70 1016.31 1015.87 1015.63 1015.88 1015.98 1015.68 1014.11 1014.40 1014.22 1014.05 1013.97 1013.90 1013.90 1013.65 1013.54 1013.83 1013.80 1013.61 1013.70 1013.69 1014.05 1013.84 1013.44 1013.40 1013.58 1013.81 1014.17
1024.59 1024.38 1024.23 1023.89 1023.50 1023.18 1022.79 1022.39 1021.95 1021.46 1020.95 1020.40 1019.80 1019.23 1018.72 1018.21 1017.80 1017.37 1016.82 1016.38 1016.02 1015.77 1015.69 1015.79 1015.83 1015.20 1014.26 1014.42 1014.21 1014.13 1014.01 1013.93 1014.05 1014.02 1014.04 1014.27 1014.12 1013.97 1013.88 1014.09 1013.79 1013.29 1013.17 1012.82 1013.82 1013.82 1014.46
1024.66 1024.40 1024.14 1023.90 1023.57 1023.19 1022.77 1022.33 1021.87 1021.44 1020.90 1020.30 1019.73 1019.09 1018.49 1017.96 1017.49 1016.95 1016.57 1016.25 1015.93 1015.80 1015.83 1015.89 1015.49 1014.50 1014.29 1014.32 1014.33 1014.46 1014.30 1013.98 1014.13 1014.27 1014.37 1014.41 1014.23 1014.23 1014.22 1013.42 1012.98 1012.91 1012.41 1013.07 1013.77 1014.45 1014.33
1024.67 1024.49 1024.24 1023.93 1023.55 1023.14 1022.69 1022.25 1021.81 1021.31 1020.79 1020.20 1019.61 1019.02 1018.37 1017.78 1017.20 1016.69 1016.28 1016.15 1015.96 1015.82 1015.65 1015.48 1015.10 1014.53 1014.56 1014.71 1014.77 1014.75 1014.46 1014.31 1014.17 1014.26 1014.17 1014.12 1014.00 1013.68 1013.60 1013.13 1012.47 1012.80 1013.02 1013.62 1013.97 1014.96 1015.01
1024.68 1024.55 1024.28 1024.00 1023.62 1023.18 1022.75 1022.27 1021.77 1021.25 1020.71 1020.06 1019.43 1018.86 1018.23 1017.58 1016.97 1016.56 1015.81 1015.61 1015.97 1015.68 1015.14 1015.80 1015.65 1015.15 1015.02 1014.96 1015.09 1014.60 1014.60 1014.35 1014.28 1014.10 1013.83 1014.27 1013.65 1013.28 1013.70 1013.84 1013.80 1013.73 1013.74 1013.94 1014.66 1015.55 1015.74
1024.76 1024.48 1024.26 1023.95 1023.68 1023.26 1022.76 1022.25 1021.72 1021.10 1020.49 1019.87 1019.21 1018.61 1018.10 1017.64 1017.10 1016.61 1015.84 1016.18 1017.40 1017.68 1016.66 1016.19 1015.74 1015.39 1015.43 1015.35 1014.74 1014.64 1014.67 1014.42 1014.27 1014.05 1014.38 1014.29 1013.85 1014.42 1014.57 1014.46 1014.21 1014.10 1013.99 1014.18 1015.07 1015.60 1015.57
1024.67 1024.51 1024.27 1023.97 1023.63 1023.21 1022.72 1022.19 1021.62 1020.96 1020.38 1019.76 1019.14 1018.59 1018.05 1017.57 1017.09 1016.66 1016.85 1017.70 1017.96 1017.78 1016.28 1016.22 1015.85 1015.45 1015.49 1015.31 1015.04 1014.91 1014.84 1014.80 1014.56 1014.46 1014.48 1014.22 1014.73 1015.13 1015.05 1014.90 1014.58 1014.43 1014.28 1014.48 1014.65 1015.57 1015.86
1024.74 1024.51 1024.26 1023.97 1023.58 1023.14 1022.66 1022.11 1021.48 1020.79 1020.16 1019.56 1019.04 1018.56 1017.99 1017.37 1017.34 1017.49 1017.49 1018.10 1017.94 1017.64 1016.09 1016.48 1015.74 1015.71 1015.53 1015.47 1015.45 1015.64 1015.56 1015.34 1014.98 1014.91 1014.97 1014.83 1015.23 1015.17 1015.06 1014.91 1014.94 1014.80 1015.15 1015.21 1015.29 1015.25 1014.97
1024.73 1024.50 1024.21 1023.89 1023.50 1022.98 1022.49 1021.92 1021.28 1020.69 1020.11 1019.55 1019.00 1018.58 1018.16 1017.43 1017.50 1017.75 1018.47 1018.25 1017.96 1017.42 1015.91 1016.86 1015.92 1015.82 1015.67 1015.55 1015.95 1015.90 1016.39 1015.50 1015.44 1015.38 1015.60 1015.48 1015.39 1015.32 1015.13 1015.26 1015.35 1015.49 1015.67 1015.50 1015.41 1015.17 1015.33
1024.77 1024.46 1024.23 1023.82 1023.42 1022.88 1022.37 1021.74 1021.13 1020.51 1019.94 1019.44 1018.95 1018.51 1018.14 1017.76 1017.58 1018.51 1018.46 1018.29 1017.91 1016.92 1016.45 1016.73 1016.46 1016.21 1015.83 1016.17 1016.37 1016.43 1016.41 1016.41 1016.75 1016.17 1015.92 1015.81 1016.11 1015.90 1015.63 1015.89 1015.95 1016.14 1015.96 1015.87 1015.66 1015.26 1014.97
1024.73 1024.53 1024.17 1023.78 1023.35 1022.80 1022.18 1021.56 1020.95 1020.33 1019.76 1019.31 1018.97 1018.56 1018.18 1018.24 1018.16 1018.25 1018.09 1017.61 1016.95 1016.20 1017.70 1017.41 1017.23 1017.19 1016.89 1016.94 1016.99 1017.14 1017.52 1017.83 1017.75 1017.01 1016.36 1016.27 1016.21 1016.24 1016.24 1015.94 1016.21 1016.09 1015.61 1014.78 1014.77 1014.66 1014.16
1024.68 1024.49 1024.18 1023.83 1023.33 1022.82 1022.18 1021.51 1020.83 1020.18 1019.57 1019.14 1018.89 1018.61 1018.76 1018.91 1018.76 1018.41 1017.43 1016.70 1016.93 1018.34 1018.58 1018.91 1018.53 1018.05 1017.74 1018.10 1018.21 1018.30 1018.41 1018.75 1019.28 1018.89 1017.87 1017.08 1016.77 1016.65 1016.65 1016.30 1016.01 1016.00 1015.76 1014.85 1014.27 1014.06 1014.70
1024.74 1024.53 1024.15 1023.82 1023.34 1022.80 1022.21 1021.47 1020.71 1020.04 1019.38 1018.89 1018.81 1018.30 1018.27 1018.61 1018.73 1018.33 1017.19 1016.39 1018.10 1018.94 1019.49 1019.36 1019.06 1018.70 1018.67 1019.03 1019.07 1019.10 1019.83 1020.28 1020.75 1020.55 1019.60 1018.35 1017.58 1017.46 1017.40 1017.12 1016.97 1016.49 1016.11 1016.28 1015.52 1015.69 1015.60
1024.71 1024.59 1024.19 1023.78 1023.35 1022.83 1022.25 1021.46 1020.61 1019.93 1019.39 1018.90 1018.27 1018.36 1018.46 1018.75 1018.61 1017.97 1016.92 1018.82 1020.11 1020.76 1020.73 1020.43 1019.69 1019.93 1019.22 1019.53 1019.49 1019.79 1020.93 1022.34 1022.09 1021.87 1021.26 1020.13 1018.80 1018.05 1017.84 1017.78 1017.68 1017.09 1017.21 1016.68 1016.14 1015.49 1015.30
1024.74 1024.53 1024.34 1023.82 1023.44 1022.92 1022.26 1021.46 1020.65 1019.94 1019.32 1019.00 1018.39 1018.13 1018.65 1018.72 1018.14 1017.52 1018.33 1020.24 1021.25 1021.95 1021.98 1021.31 1020.89 1020.75 1020.89 1020.81 1020.85 1021.21 1022.35 1023.38 1023.29 1022.63 1022.02 1021.11 1020.14 1018.76 1018.49 1018.50 1018.44 1018.00 1017.64 1017.60 1017.33 1016.91 1016.14
1024.72 1024.57 1024.25 1023.90 1023.52 1022.95 1022.35 1021.55 1020.74 1019.91 1019.44 1018.97 1018.44 1018.22 1018.93 1018.90 1018.22 1019.50 1020.17 1021.42 1022.37 1022.58 1022.51 1022.22 1022.07 1021.93 1021.97 1022.13 1022.03 1022.33 1023.08 1024.02 1024.53 1023.83 1022.63 1022.28 1021.29 1019.63 1019.42 1019.98 1019.96 1019.74 1019.44 1019.13 1018.29 1017.83 1018.10
1024.65 1024.59 1024.37 1023.86 1023.53 1023.04 1022.32 1021.54 1020.81 1020.11 1019.77 1019.02 1018.75 1018.95 1018.90 1018.76 1019.02 1020.22 1021.81 1022.61 1023.37 1023.40 1023.72 1023.34 1023.37 1023.27 1023.04 1023.14 1023.38 1023.44 1023.97 1024.94 1024.98 1024.61 1024.29 1023.46 1022.11 1020.81 1020.49 1021.04 1020.71 1020.64 1021.02 1020.79 1020.50 1020.14 1018.97
1024.66 1024.76 1024.38 1023.89 1023.69 1023.11 1022.26 1021.49 1020.69 1020.15 1019.89 1019.44 1019.46 1019.55 1019.72 1020.10 1021.51 1020.87 1021.73 1022.94 1023.69 1024.36 1024.57 1024.60 1024.50 1024.23 1023.94 1023.88 1024.09 1024.52 1025.19 1025.76 1025.84 1025.49 1025.09 1024.53 1023.52 1022.40 1021.70 1022.19 1022.48 1022.03 1022.24 1022.25 1021.83 1021.00 1020.04
1024.93 1024.86 1024.56 1023.87 1023.89 1023.23 1022.24 1021.46 1020.76 1020.07 1019.86 1019.55 1020.58 1021.75 1022.32 1021.75 1022.37 1022.17 1022.52 1023.50 1024.06 1024.63 1024.96 1025.10 1025.06 1025.06 1024.74 1024.74 1024.98 1025.14 1025.68 1026.01 1026.43 1026.57 1025.64 1025.01 1024.33 1024.16 1023.46 1023.45 1023.56 1023.34 1023.26 1023.19 1023.04 1022.41 1022.17
1025.28 1024.91 1024.62 1024.29 1024.04 1023.52 1022.45 1021.72 1021.20 1020.31 1019.88 1020.22 1021.43 1022.16 1022.89 1023.19 1023.65 1023.18 1023.55 1024.42 1024.81 1025.62 1025.56 1025.64 1025.50 1025.97 1025.76 1025.78 1026.12 1026.09 1026.47 1026.58 1026.94 1027.10 1026.72 1026.15 1025.28 1025.06 1024.19 1024.22 1024.20 1024.06 1024.02 1024.11 1024.05 1023.83 1023.66
1025.28 1025.27 1024.60 1024.65 1024.19 1023.66 1022.88 1022.02 1021.37 1020.70 1020.01 1020.90 1022.65 1022.78 1022.11 1023.98 1023.84 1023.73 1024.28 1024.73 1025.28 1025.60 1026.53 1026.34 1026.24 1026.34 1026.82 1027.43 1027.44 1027.51 1027.48 1027.40 1027.79 1027.81 1027.34 1026.78 1026.28 1025.48 1024.42 1024.66 1024.38 1024.20 1024.58 1024.69 1024.92 1025.03 1025.03
1025.28 1025.19 1024.96 1024.89 1024.44 1023.99 1023.45 1022.77 1022.08 1021.30 1020.96 1021.37 1022.73 1022.51 1022.15 1023.88 1024.21 1024.61 1025.04 1025.32 1025.68 1026.20 1026.38 1026.97 1026.97 1026.92 1028.03 1028.31 1028.26 1028.01 1028.02 1027.97 1028.16 1028.31 1028.01 1027.46 1026.88 1026.35 1025.16 1024.98 1024.61 1025.14 1025.43 1025.58 1025.67 1025.96 1025.91
1025.34 1025.12 1025.41 1024.82 1024.77 1024.28 1023.93 1023.51 1023.06 1022.55 1022.31 1022.35 1023.50 1023.09 1022.92 1024.28 1024.91 1025.63 1025.70 1026.00 1026.44 1026.59 1027.18 1027.25 1027.73 1027.95 1028.05 1028.06 1027.70 1027.60 1027.76 1028.17 1028.39 1028.55 1028.28 1028.07 1027.49 1026.63 1025.93 1025.26 1024.70 1025.44 1025.81 1025.96 1025.86 1026.34 1026.57
1025.38 1025.46 1025.38 1025.23 1024.86 1024.75 1024.37 1023.97 1023.57 1023.26 1023.17 1023.34 1024.19 1024.14 1023.58 1024.35 1025.75 1025.80 1026.09 1026.64 1026.65 1026.89 1027.61 1027.87 1028.31 1028.34 1028.00 1027.48 1027.22 1027.23 1027.35 1027.83 1028.17 1028.43 1028.78 1028.46 1028.00 1027.27 1026.67 1025.82 1024.69 1025.17 1026.09 1026.34 1026.35 1025.85 1026.52
1025.44 1025.36 1025.49 1025.59 1025.26 1025.12 1024.62 1024.56 1024.21 1023.91 1023.66 1023.38 1024.69 1024.87 1024.20 1025.02 1026.57 1026.51 1026.51 1026.87 1027.41 1027.43 1027.41 1028.14 1028.21 1028.30 1028.31 1027.65 1027.28 1027.45 1027.80 1028.49 1028.17 1028.05 1028.20 1028.12 1027.74 1027.27 1026.55 1026.09 1025.34 1026.10 1026.41 1026.53 1026.39 1026.31 1026.38
1025.51 1025.36 1025.38 1025.47 1025.66 1025.45 1025.15 1025.11 1024.85 1024.43 1024.18 1023.72 1025.20 1025.10 1024.48 1025.42 1027.08 1027.12 1027.21 1027.26 1027.66 1027.59 1027.56 1028.54 1028.69 1028.47 1028.27 1028.13 1027.73 1027.94 1028.09 1028.48 1028.54 1028.37 1028.03 1027.68 1027.24 1026.86 1026.66 1026.26 1025.81 1026.23 1026.39 1026.44 1026.01 1026.13 1026.05
1025.20 1025.70 1025.61 1025.74 1025.80 1025.56 1025.61 1025.66 1025.24 1025.00 1024.62 1024.33 1024.89 1025.32 1024.97 1025.33 1027.53 1027.83 1027.78 1028.09 1028.12 1027.89 1028.00 1028.71 1028.73 1028.39 1028.45 1028.50 1028.69 1028.73 1028.71 1029.09 1028.87 1028.30 1028.63 1027.92 1027.17 1026.85 1026.60 1025.73 1025.92 1026.06 1026.31 1026.28 1026.46 1026.34 1026.26
Wind_Speed
8 10 10 10 11 11 12 12 13 14 15 16 17 17 18 18 18 18 17 16 15 13 12 11 9 8 5 4 5 4 7 4 1 2 6 3 5 1 2 1 1 1 2 3 4 7 4
8 8 10 11 11 12 13 14 15 16 16 17 18 19 20 20 19 18 17 16 15 12 9 8 7 5 4 6 3 3 5 0 5 3 5 5 4 2 4 1 1 2 3 3 2 4 4
8 9 10 11 13 14 16 16 17 18 18 19 19 20 20 20 19 18 17 17 15 11 4 5 5 4 4 6 2 4 3 3 3 3 4 4 2 2 2 4 1 1 5 4 9 4 5
8 9 11 11 13 15 16 17 17 18 19 19 20 20 19 18 18 18 17 15 11 4 5 6 5 3 6 2 2 4 2 4 4 5 5 3 3 5 2 2 3 2 3 4 7 7 4
7 8 11 13 14 15 15 16 17 18 19 20 20 20 19 18 17 17 16 13 4 6 7 7 3 3 7 1 2 4 4 2 3 4 5 3 1 3 3 3 5 2 4 2 4 7 2
7 11 11 13 14 15 16 17 18 19 19 20 20 19 18 17 17 16 13 4 1 3 4 4 2 5 2 3 3 3 2 2 2 3 3 1 1 3 3 4 0 3 2 1 2 7 9
9 10 12 12 14 15 17 18 18 19 19 19 20 19 18 17 17 14 5 3 4 5 9 6 4 3 2 3 2 3 3 2 1 1 1 2 5 3 4 3 4 3 1 1 3 4 6
7 9 11 13 14 15 16 17 18 19 20 20 20 19 18 16 14 8 2 4 4 4 9 3 2 2 0 2 2 5 3 2 1 2 1 5 2 4 3 4 4 3 2 4 5 2 4
7 10 10 13 14 16 17 17 18 19 20 20 20 18 16 14 8 4 8 5 3 2 3 4 3 4 3 4 3 5 4 1 1 1 2 3 5 1 3 4 5 2 3 4 1 5 4
7 9 11 13 14 16 17 17 18 19 20 21 20 18 16 16 2 1 4 4 2 3 4 5 3 4 1 2 3 4 6 3 1 1 1 2 2 2 4 3 4 2 1 2 5 5 2
7 9 11 13 15 16 17 18 18 19 19 18 19 16 13 11 4 3 6 6 2 4 4 3 2 3 3 3 2 5 4 2 2 2 4 5 1 2 2 2 2 4 2 1 2 5 4
7 9 11 13 15 16 18 18 19 19 18 17 17 15 10 0 2 3 6 1 4 5 2 2 3 6 2 5 3 5 5 7 2 1 0 2 1 2 3 3 2 8 3 2 2 3 6
7 9 11 13 15 17 18 20 20 20 19 18 15 9 4 2 2 5 2 3 5 4 1 3 2 4 3 5 4 7 5 11 6 3 2 1 2 1 1 3 4 4 5 4 5 6 2
7 9 11 14 15 17 19 20 20 21 19 18 12 1 4 6 5 4 4 4 4 4 4 3 4 1 2 6 4 4 4 4 9 4 2 3 5 2 4 3 3 1 4 5 5 3 4
6 9 11 14 16 17 19 20 21 21 18 14 4 2 3 8 4 3 5 1 3 2 1 1 1 1 3 2 5 2 6 5 6 10 5 5 2 1 4 3 4 4 4 4 4 0 4
6 9 11 13 16 18 20 21 21 20 18 8 2 0 3 9 3 4 1 5 3 3 2 2 1 2 2 3 2 2 2 5 5 5 3 4 4 2 2 2 5 3 3 4 3 4 5
6 9 12 14 16 18 20 21 21 19 15 3 1 2 4 6 4 2 3 5 4 4 3 4 2 3 3 2 3 3 4 3 5 5 3 4 3 3 3 5 5 0 2 0 4 4 5
6 8 11 13 16 18 20 21 21 17 13 2 2 2 5 5 2 3 3 3 1 2 5 3 3 4 2 3 3 3 3 6 10 4 2 4 4 4 2 4 2 2 3 4 5 2 0
6 8 11 13 15 17 19 21 21 15 9 1 2 2 3 4 2 5 5 5 5 2 5 3 3 3 2 2 1 2 3 3 8 6 4 5 2 4 4 4 3 3 4 3 2 2 8
7 8 10 13 15 17 18 19 20 13 4 1 1 1 4 5 3 6 7 4 5 4 4 4 3 1 2 3 4 4 2 3 5 7 5 3 3 6 5 5 4 2 2 4 5 5 8
6 8 10 13 15 17 19 20 22 14 3 0 5 4 2 4 5 7 3 3 6 4 3 3 4 4 1 3 2 3 2 1 4 10 3 3 3 3 5 5 4 7 9 7 8 9 8
5 8 10 12 14 17 20 21 22 16 2 5 2 3 3 4 2 3 3 3 4 5 2 2 4 4 2 3 3 3 1 2 3 4 3 4 1 2 3 1 4 8 7 7 6 6 10
6 7 11 12 14 17 18 20 22 22 3 4 2 2 0 2 3 2 2 5 5 8 4 5 6 5 6 5 3 3 3 0 1 3 3 3 1 1 2 4 7 9 3 3 3 1 3
7 8 10 12 15 17 20 21 21 23 12 3 3 1 2 4 1 3 6 5 9 2 5 4 3 2 3 1 5 6 7 5 5 5 4 0 1 2 3 5 5 7 2 2 5 4 3
7 8 8 11 13 15 18 20 20 16 18 6 2 1 3 5 7 9 9 10 9 7 5 5 3 3 1 3 3 5 3 2 3 7 2 2 2 2 4 4 4 6 6 4 5 4 3
7 7 8 9 12 14 16 17 18 16 10 5 5 3 3 8 3 7 7 4 5 4 4 3 1 2 1 1 2 3 3 2 3 3 5 4 1 4 2 4 4 6 5 0 3 7 5
8 8 7 8 11 12 15 16 17 15 11 5 4 5 2 6 2 1 3 4 3 2 3 2 1 2 3 1 2 2 3 1 3 3 4 3 3 7 6 5 4 6 4 4 6 4 5
8 8 8 9 9 11 14 15 17 17 11 3 2 6 2 4 4 2 2 4 4 2 3 5 4 2 2 1 1 3 2 2 3 1 2 4 3 4 3 5 7 7 3 5 9 13 11
10 8 9 9 9 10 12 13 16 16 14 3 4 3 4 6 5 3 5 4 3 3 4 1 3 3 2 2 1 2 3 2 1 2 3 5 6 3 5 2 5 6 10 10 8 12 14
Wind_Direction
15 17 12 12 4 358 356 354 354 348 342 339 336 333 331 329 327 325 323 321 319 313 303 296 289 294 254 149 81 12 323 312 354 45 49 60 60 96 123 92 174 213 72 314 323 309 299
26 20 15 6 358 358 353 351 349 347 343 340 337 337 334 332 329 325 321 320 317 310 291 267 264 267 241 112 355 338 328 312 47 66 61 45 67 53 100 84 321 28 316 350 8 19 60
24 17 7 360 2 352 351 349 350 346 343 341 339 337 335 332 329 325 324 325 325 322 260 203 210 243 94 79 354 350 5 45 22 46 86 58 83 246 151 146 38 236 163 136 43 36 76
23 10 5 357 356 353 352 350 348 346 343 341 339 337 334 332 329 325 328 328 326 22 114 149 175 253 76 33 27 44 23 94 81 59 79 65 69 93 339 118 172 189 204 185 48 16 114
5 9 4 358 354 351 352 350 349 345 343 340 339 337 334 333 328 329 329 326 356 76 112 138 200 286 108 135 87 357 355 103 104 83 69 83 73 48 189 221 172 165 142 94 133 26 300
20 14 2 356 352 352 350 350 347 344 343 340 339 336 335 334 334 332 322 270 8 180 174 219 225 164 99 49 339 338 55 68 107 145 180 150 161 181 167 243 60 122 160 103 358 34 81
17 6 359 354 356 352 350 348 346 343 341 341 340 339 338 338 335 336 301 202 199 129 41 39 44 60 51 354 248 62 15 156 151 176 196 43 229 139 86 59 73 103 97 343 88 81 80
18 6 1 360 354 350 349 348 345 344 344 344 343 342 340 335 329 333 355 62 38 359 89 46 48 74 331 330 127 61 321 235 237 140 242 207 141 107 98 149 158 175 200 145 121 92 153
17 5 3 359 353 349 349 348 346 346 345 345 345 343 339 335 314 26 74 66 318 238 98 56 26 25 0 330 60 33 344 77 51 146 11 326 88 99 242 177 200 198 260 177 136 127 106
17 7 3 357 353 349 348 347 346 346 346 346 346 344 345 336 235 14 63 348 283 226 157 35 29 52 332 333 80 357 10 330 148 29 168 74 99 181 166 196 241 226 159 161 156 217 234
10 6 4 358 352 350 347 346 347 347 343 345 345 343 346 8 95 48 10 327 205 237 222 30 38 349 360 32 15 58 29 275 40 93 253 87 140 170 216 34 227 69 160 169 217 239 249
9 9 3 359 353 350 345 345 346 346 343 345 346 339 329 52 79 68 333 296 244 219 141 124 347 354 174 35 61 328 28 42 26 250 351 50 339 293 32 79 30 136 149 120 156 213 235
20 9 4 359 353 350 346 345 345 345 345 342 338 342 358 318 12 325 256 208 226 273 168 84 22 3 82 31 59 25 51 48 17 280 56 78 81 72 324 196 134 207 224 213 203 200 24
25 10 4 359 356 350 347 344 344 344 344 342 336 5 47 38 329 261 210 206 255 38 24 3 342 334 66 358 60 50 112 83 49 357 348 311 172 353 3 354 346 274 298 304 291 274 91
25 10 8 0 356 351 346 345 345 344 343 347 301 110 81 359 333 277 256 172 87 134 147 349 189 240 114 60 341 99 51 50 24 9 352 328 137 20 32 337 314 124 239 7 297 38 258
29 10 9 2 357 352 346 346 347 345 345 353 118 239 50 340 325 272 292 77 73 26 341 223 190 316 153 30 188 76 54 13 356 11 327 46 278 61 26 247 77 321 71 236 191 268 258
32 16 9 6 359 353 349 347 348 346 349 336 110 166 28 336 239 55 63 78 115 49 322 360 101 112 67 52 26 59 43 61 355 333 346 338 270 114 226 23 10 314 203 59 300 294 294
36 21 17 9 2 356 350 350 350 351 345 353 110 154 13 301 85 46 81 86 33 33 36 79 88 74 63 42 65 100 105 31 352 309 22 19 317 278 9 358 338 329 38 353 280 144 353
44 27 18 15 5 358 353 354 355 356 355 152 59 53 53 291 152 109 120 93 60 42 31 32 75 16 82 90 175 131 117 72 13 21 20 2 185 268 181 167 161 61 53 56 25 280 257
52 30 26 21 7 360 356 356 1 360 14 48 130 148 62 60 22 113 132 115 117 52 71 48 61 93 144 115 44 125 97 42 4 19 10 239 282 284 308 22 343 267 314 330 298 266 292
53 37 28 28 11 5 5 3 5 7 22 99 6 82 19 72 48 95 87 105 130 120 80 40 97 59 86 143 129 102 86 45 64 360 43 29 268 303 294 299 292 278 286 285 266 281 268
59 47 37 30 20 12 12 7 9 9 76 80 99 148 99 90 59 105 18 84 129 120 358 78 113 70 65 94 36 136 19 44 33 1 19 356 165 327 279 356 304 280 278 270 261 266 265
85 54 47 34 28 22 18 15 11 16 358 92 116 111 244 41 117 192 97 130 145 142 62 65 128 130 101 74 13 338 287 321 3 321 339 354 291 234 230 314 302 243 209 185 119 67 294
91 66 53 40 33 28 25 23 23 25 33 69 67 143 138 109 86 84 124 111 125 89 128 107 86 138 77 316 125 103 89 110 124 24 246 180 222 275 307 298 236 82 101 110 107 73 68
105 79 63 50 40 35 30 28 29 36 36 74 55 355 97 105 118 116 116 114 114 100 97 101 71 54 308 165 161 146 136 159 83 40 125 220 253 218 280 263 328 176 175 192 220 134 73
116 98 72 59 49 41 37 34 33 36 48 70 49 333 78 121 156 121 118 147 135 124 140 99 76 351 208 162 166 193 180 83 164 137 74 161 15 277 211 265 274 95 135 244 200 230 136
130 109 86 72 58 48 45 37 33 35 48 77 52 356 86 104 103 126 112 143 108 107 100 146 123 162 307 166 127 162 149 357 215 199 171 189 212 239 245 264 269 121 66 149 235 76 284
136 115 101 94 74 55 46 39 32 28 31 77 84 13 38 82 95 61 119 128 129 197 169 124 177 151 116 153 163 135 192 146 229 192 222 239 240 215 211 234 249 162 159 229 337 308 296
136 127 110 103 83 67 55 45 38 29 23 52 63 11 12 73 89 45 61 33 17 75 123 105 3 104 115 122 144 133 168 180 191 239 200 248 234 303 244 346 143 187 293 295 300 289 295